Flag for U.S.A. Weather past 2 weeks in Long Beach, California, U.S.A.

Now
81 °F

Sunny.


Feels Like: 81 °F
Forecast: 65 / 80 °F
Wind: 9 mph from Southwest

Location: Long Beach Airport

Current Time: Jun 30, 2015 at 1:35:09 PM

Latest Report: Jun 30, 2015 at 12:53 PM


Visibility: 10 mi

Pressure: 29.89 "Hg

Humidity: 47%

Dew point: 59 °F

Location of Long BeachLocation

Historic Weather in Long Beach — Graph

°F

Long Beach temperature yesterday

Maximum temperature yesterday: 81 °F (at 3:53 PM)
Minimum temperature yesterday: 67 °F (at 3:53 AM)
Average temperature yesterday: 74 °F

Past Weeks' High & Low Weather Summary

 TemperatureHumidityPressure
High88 °F (Jun 28, 12:53 PM)97% (Jun 19, 5:53 AM)30.03 "Hg (Jun 19, 5:53 AM)
Low61 °F (Jun 19, 5:53 AM)38% (Jun 19, 2:53 PM)29.79 "Hg (Jun 20, 2:53 AM)
Average72 °F68%29.90 "Hg
* Reported Jun 15 11:53 AM — Jun 30 11:53 AM, Long Beach, Weather by CustomWeather, © 2015

Note: Actual official high and low records may vary slightly from our data, if they occured in-between our weather recording intervals... More about our weather records

Advertising

Long Beach weather history for previous 24 hours

 ConditionsComfort  
Time TempWeatherWind HumidityBarometerVisibility
11:53 AM
Tue, Jun 30
81 °FScattered clouds.8 mph45%29.89 "Hg10 mi
10:53 AM79 °FSunny.6 mph58%29.89 "Hg10 mi
9:53 AM77 °FSunny.3 mph62%29.89 "Hg10 mi
8:53 AM72 °FPassing clouds.5 mph76%29.90 "Hg9 mi
7:53 AM71 °FPassing clouds.5 mph76%29.89 "Hg10 mi
6:53 AM70 °FSunny.3 mph76%29.88 "Hg10 mi
5:53 AM69 °FClear.5 mph76%29.87 "Hg10 mi
4:53 AM69 °FClear.No wind79%29.86 "Hg10 mi
3:53 AM69 °FClear.No wind81%29.86 "Hg10 mi
2:53 AM69 °FClear.No wind81%29.87 "Hg10 mi
1:53 AM70 °FClear.No wind79%29.87 "Hg10 mi
12:53 AM70 °FClear.No wind79%29.88 "Hg10 mi
11:53 PM
Mon, Jun 29
70 °FClear.No wind79%29.90 "Hg10 mi
10:53 PM71 °FClear.3 mph76%29.90 "Hg10 mi
9:53 PM71 °FClear.3 mph76%29.89 "Hg10 mi
8:53 PM72 °FSunny.5 mph73%29.87 "Hg10 mi
7:53 PM76 °FSunny.6 mph60%29.86 "Hg10 mi
6:53 PM81 °FSunny.6 mph51%29.85 "Hg10 mi
5:53 PM81 °FSunny.6 mph53%29.85 "Hg10 mi
4:53 PM79 °FSunny.7 mph58%29.85 "Hg10 mi
3:53 PM81 °FSunny.8 mph53%29.85 "Hg10 mi
2:53 PM78 °FSunny.10 mph56%29.87 "Hg10 mi
1:53 PM80 °FSunny.8 mph52%29.88 "Hg10 mi
Weather by CustomWeather, © 2015

See weather overviewHow to use our weather pages